{"data":{"norad_id":46079,"intl_designator":"2020-055BE","name":"STARLINK-1566","alt_names":[],"object_type":"PAYLOAD","status":"ACTIVE","operator":null,"country":"US","launch_date":"2020-08-07","launch_site_code":"AFETR","launch_vehicle":null,"mission":null,"orbit_class":"UNKNOWN","rcs_meters":null,"size_class":null,"mass_kg":null,"dimensions":null,"purposes":["comms"],"wikipedia_slug":null,"has_3d_model":false,"image_url":null,"decayed_at":null,"tle_current":{"epoch":"2026-05-25T03:56:24.351936Z","epoch_age_seconds":64029,"freshness":"FRESH","line1":"1 46079U 20055BE  26145.16417074 -.00008613  00000+0 -26631-3 0  9996","line2":"2 46079  53.1598 105.4538 0001107  75.0346 285.0778 15.31674863320959","mean_motion":15.31674863,"eccentricity":0.0001107,"inclination_deg":53.1598,"raan_deg":105.4538,"arg_perigee_deg":75.0346,"mean_anomaly_deg":285.0778,"bstar":-0.00026631,"rev_number":32095,"period_min":94.014730853489,"perigee_km":470.05674936094,"apogee_km":471.57310731788,"semimajor_km":6848.9519283394,"source":"CELESTRAK","updated_at":"2026-05-25T13:38:16.464947Z"}}}